Time,TemperatureF,DewpointF,PressureIn,WindDirection,WindDirectionDegrees,WindSpeedMPH,WindSpeedGustMPH,Humidity,HourlyPrecipIn,Conditions,Clouds,dailyrainin,SoftwareType,DateUTC
2013-07-20 00:05:00,65.0,57.0,29.73,SW,228,0.0,-999.0,75,-99.99,,,0.00,weatherlink.com 1.10,2013-07-20 04:05:00,
2013-07-20 00:20:00,65.2,57.0,29.73,SW,227,0.0,-999.0,74,-99.99,,,0.00,weatherlink.com 1.10,2013-07-20 04:20:00,
2013-07-20 00:35:00,65.4,56.0,29.73,SW,228,0.0,-999.0,71,-99.99,,,0.00,weatherlink.com 1.10,2013-07-20 04:35:00,
2013-07-20 00:50:00,65.6,56.0,29.73,SW,227,0.0,-999.0,72,-99.99,,,0.00,weatherlink.com 1.10,2013-07-20 04:50:00,
2013-07-20 01:05:00,65.6,56.0,29.73,SW,228,0.0,-999.0,72,-99.99,,,0.00,weatherlink.com 1.10,2013-07-20 05:05:00,
2013-07-20 01:20:00,65.8,57.0,29.73,SW,228,0.0,-999.0,74,-99.99,,,0.00,weatherlink.com 1.10,2013-07-20 05:20:00,
2013-07-20 01:35:00,66.1,58.0,29.73,SW,228,0.0,-999.0,74,-99.99,,,0.00,weatherlink.com 1.10,2013-07-20 05:35:00,
2013-07-20 01:52:00,66.6,58.0,29.74,SW,227,0.0,-999.0,73,-99.99,,,0.00,weatherlink.com 1.10,2013-07-20 05:52:00,
2013-07-20 02:05:00,66.9,58.0,29.74,SW,227,0.0,-999.0,72,-99.99,,,0.00,weatherlink.com 1.10,2013-07-20 06:05:00,
2013-07-20 02:20:00,67.3,57.0,29.75,SW,228,0.0,-999.0,70,-99.99,,,0.00,weatherlink.com 1.10,2013-07-20 06:20:00,
2013-07-20 02:35:00,67.5,57.0,29.74,SW,228,0.0,-999.0,70,-99.99,,,0.00,weatherlink.com 1.10,2013-07-20 06:35:00,
2013-07-20 02:50:00,67.5,57.0,29.75,SW,228,0.0,-999.0,70,-99.99,,,0.00,weatherlink.com 1.10,2013-07-20 06:50:00,
2013-07-20 03:05:00,67.3,57.0,29.75,SW,228,0.0,-999.0,70,-99.99,,,0.00,weatherlink.com 1.10,2013-07-20 07:05:00,
2013-07-20 03:20:00,66.8,57.0,29.76,SW,227,0.0,-999.0,71,-99.99,,,0.00,weatherlink.com 1.10,2013-07-20 07:20:00,
2013-07-20 03:35:00,66.2,57.0,29.77,NE,42,0.0,-999.0,71,-99.99,,,0.00,weatherlink.com 1.10,2013-07-20 07:35:00,
2013-07-20 03:50:00,65.3,56.0,29.79,ENE,64,3.0,-999.0,73,-99.99,,,0.00,weatherlink.com 1.10,2013-07-20 07:50:00,
2013-07-20 04:05:00,63.7,56.0,29.79,NE,34,0.0,-999.0,75,-99.99,,,0.00,weatherlink.com 1.10,2013-07-20 08:05:00,
2013-07-20 04:20:00,62.0,55.0,29.80,NE,44,1.0,-999.0,77,-99.99,,,0.00,weatherlink.com 1.10,2013-07-20 08:20:00,
2013-07-20 04:35:00,61.1,54.0,29.81,ENE,76,1.0,-999.0,78,-99.99,,,0.00,weatherlink.com 1.10,2013-07-20 08:35:00,
2013-07-20 04:50:00,60.5,54.0,29.81,ENE,76,0.0,-999.0,79,-99.99,,,0.00,weatherlink.com 1.10,2013-07-20 08:50:00,
2013-07-20 05:05:00,60.0,53.0,29.82,ENE,76,0.0,-999.0,79,-99.99,,,0.00,weatherlink.com 1.10,2013-07-20 09:05:00,
2013-07-20 05:21:00,59.6,54.0,29.82,ENE,76,0.0,-999.0,81,-99.99,,,0.00,weatherlink.com 1.10,2013-07-20 09:21:00,
2013-07-20 05:35:00,59.2,53.0,29.83,ENE,76,1.0,-999.0,80,-99.99,,,0.00,weatherlink.com 1.10,2013-07-20 09:35:00,
2013-07-20 05:50:00,58.9,53.0,29.83,ENE,72,0.0,-999.0,80,-99.99,,,0.00,weatherlink.com 1.10,2013-07-20 09:50:00,
2013-07-20 06:05:00,58.5,53.0,29.84,ENE,72,0.0,-999.0,81,-99.99,,,0.00,weatherlink.com 1.10,2013-07-20 10:05:00,
2013-07-20 06:21:00,58.2,53.0,29.85,ENE,61,0.0,-999.0,82,-99.99,,,0.00,weatherlink.com 1.10,2013-07-20 10:21:00,
2013-07-20 06:36:00,58.0,53.0,29.86,ENE,61,0.0,-999.0,82,-99.99,,,0.00,weatherlink.com 1.10,2013-07-20 10:36:00,
2013-07-20 06:51:00,57.8,52.0,29.86,ESE,117,0.0,-999.0,80,-99.99,,,0.00,weatherlink.com 1.10,2013-07-20 10:51:00,
2013-07-20 07:06:00,57.7,51.0,29.87,NE,41,0.0,-999.0,79,-99.99,,,0.00,weatherlink.com 1.10,2013-07-20 11:06:00,
2013-07-20 07:21:00,57.7,51.0,29.88,NE,49,1.0,-999.0,77,-99.99,,,0.00,weatherlink.com 1.10,2013-07-20 11:21:00,
2013-07-20 07:36:00,57.5,50.0,29.88,NE,47,1.0,-999.0,76,-99.99,,,0.00,weatherlink.com 1.10,2013-07-20 11:36:00,
2013-07-20 07:51:00,57.6,50.0,29.89,NE,44,0.0,-999.0,75,-99.99,,,0.00,weatherlink.com 1.10,2013-07-20 11:51:00,
2013-07-20 08:06:00,57.8,50.0,29.90,NE,46,0.0,-999.0,75,-99.99,,,0.00,weatherlink.com 1.10,2013-07-20 12:06:00,
2013-07-20 08:21:00,57.8,48.0,29.91,NE,43,11.0,-999.0,71,-99.99,,,0.00,weatherlink.com 1.10,2013-07-20 12:21:00,
2013-07-20 08:36:00,57.8,48.0,29.91,NE,51,0.0,-999.0,71,-99.99,,,0.00,weatherlink.com 1.10,2013-07-20 12:36:00,
2013-07-20 08:51:00,58.7,48.0,29.92,NE,48,3.0,-999.0,67,-99.99,,,0.00,weatherlink.com 1.10,2013-07-20 12:51:00,
2013-07-20 09:06:00,59.1,48.0,29.93,NE,53,1.0,-999.0,67,-99.99,,,0.00,weatherlink.com 1.10,2013-07-20 13:06:00,
2013-07-20 09:21:00,59.0,48.0,29.94,NW,312,0.0,-999.0,68,-99.99,,,0.00,weatherlink.com 1.10,2013-07-20 13:21:00,
2013-07-20 09:36:00,58.9,47.0,29.94,North,360,0.0,-999.0,66,-99.99,,,0.00,weatherlink.com 1.10,2013-07-20 13:36:00,
2013-07-20 09:51:00,58.9,48.0,29.95,NNE,22,1.0,-999.0,67,-99.99,,,0.00,weatherlink.com 1.10,2013-07-20 13:51:00,
2013-07-20 10:06:00,59.1,49.0,29.95,ENE,59,1.0,-999.0,69,-99.99,,,0.00,weatherlink.com 1.10,2013-07-20 14:06:00,
2013-07-20 10:21:00,59.3,50.0,29.96,NE,44,0.0,-999.0,70,-99.99,,,0.00,weatherlink.com 1.10,2013-07-20 14:21:00,
2013-07-20 10:36:00,59.1,48.0,29.96,NNE,19,3.0,-999.0,68,-99.99,,,0.00,weatherlink.com 1.10,2013-07-20 14:36:00,
2013-07-20 10:51:00,59.9,50.0,29.97,NE,48,1.0,-999.0,71,-99.99,,,0.00,weatherlink.com 1.10,2013-07-20 14:51:00,
2013-07-20 11:06:00,59.8,49.0,29.98,NE,41,3.0,-999.0,67,-99.99,,,0.00,weatherlink.com 1.10,2013-07-20 15:06:00,
2013-07-20 11:21:00,60.2,50.0,29.98,NE,42,0.0,-999.0,69,-99.99,,,0.00,weatherlink.com 1.10,2013-07-20 15:21:00,
2013-07-20 11:36:00,60.8,51.0,29.99,NE,49,0.0,-999.0,69,-99.99,,,0.00,weatherlink.com 1.10,2013-07-20 15:36:00,
2013-07-20 11:51:00,60.8,48.0,29.99,NE,35,2.0,-999.0,63,-99.99,,,0.00,weatherlink.com 1.10,2013-07-20 15:51:00,
2013-07-20 12:06:00,60.2,48.0,29.99,NNE,27,7.0,-999.0,65,-99.99,,,0.00,weatherlink.com 1.10,2013-07-20 16:06:00,
2013-07-20 12:21:00,60.7,49.0,29.99,NNE,17,2.0,-999.0,65,-99.99,,,0.00,weatherlink.com 1.10,2013-07-20 16:21:00,
2013-07-20 12:36:00,60.5,49.0,30.00,NE,37,2.0,-999.0,66,-99.99,,,0.00,weatherlink.com 1.10,2013-07-20 16:36:00,
2013-07-20 12:51:00,60.3,50.0,30.00,NE,56,6.0,-999.0,68,-99.99,,,0.00,weatherlink.com 1.10,2013-07-20 16:51:00,
2013-07-20 13:06:00,60.7,50.0,30.00,NE,34,3.0,-999.0,68,-99.99,,,0.00,weatherlink.com 1.10,2013-07-20 17:06:00,
2013-07-20 13:21:00,59.5,48.0,30.00,NE,42,4.0,-999.0,66,-99.99,,,0.00,weatherlink.com 1.10,2013-07-20 17:21:00,
2013-07-20 13:36:00,59.0,48.0,30.00,NE,40,5.0,-999.0,68,-99.99,,,0.00,weatherlink.com 1.10,2013-07-20 17:36:00,
2013-07-20 13:51:00,59.5,47.0,30.01,NE,42,4.0,-999.0,64,-99.99,,,0.00,weatherlink.com 1.10,2013-07-20 17:51:00,
2013-07-20 14:06:00,60.3,48.0,30.01,NE,42,0.0,-999.0,65,-99.99,,,0.00,weatherlink.com 1.10,2013-07-20 18:06:00,
2013-07-20 14:21:00,60.3,50.0,30.01,NE,46,4.0,-999.0,68,-99.99,,,0.00,weatherlink.com 1.10,2013-07-20 18:21:00,
2013-07-20 14:51:00,60.6,51.0,30.00,NE,45,2.0,-999.0,70,-99.99,,,0.00,weatherlink.com 1.10,2013-07-20 18:51:00,
2013-07-20 15:36:00,59.1,50.0,30.01,NE,54,1.0,-999.0,72,-99.99,,,0.00,weatherlink.com 1.10,2013-07-20 19:36:00,
2013-07-20 15:51:00,59.7,50.0,30.01,NE,49,3.0,-999.0,70,-99.99,,,0.00,weatherlink.com 1.10,2013-07-20 19:51:00,
2013-07-20 16:36:00,57.7,49.0,30.02,ENE,59,2.0,-999.0,72,-99.99,,,0.00,weatherlink.com 1.10,2013-07-20 20:36:00,
2013-07-20 17:06:00,57.9,50.0,30.03,NE,47,3.0,-999.0,74,-99.99,,,0.00,weatherlink.com 1.10,2013-07-20 21:06:00,
2013-07-20 17:21:00,57.2,49.0,30.03,NE,41,3.0,-999.0,73,-99.99,,,0.00,weatherlink.com 1.10,2013-07-20 21:21:00,
2013-07-20 17:36:00,57.1,48.0,30.03,NE,34,5.0,-999.0,71,-99.99,,,0.00,weatherlink.com 1.10,2013-07-20 21:36:00,
2013-07-20 17:51:00,57.5,49.0,30.03,NE,48,0.0,-999.0,74,-99.99,,,0.00,weatherlink.com 1.10,2013-07-20 21:51:00,
2013-07-20 18:06:00,57.0,48.0,30.03,NE,42,0.0,-999.0,73,-99.99,,,0.00,weatherlink.com 1.10,2013-07-20 22:06:00,
2013-07-20 18:21:00,57.1,48.0,30.03,NE,38,3.0,-999.0,71,-99.99,,,0.00,weatherlink.com 1.10,2013-07-20 22:21:00,
2013-07-20 18:36:00,57.0,48.0,30.03,NE,34,0.0,-999.0,71,-99.99,,,0.00,weatherlink.com 1.10,2013-07-20 22:36:00,
2013-07-20 18:51:00,56.9,48.0,30.02,NNE,20,0.0,-999.0,72,-99.99,,,0.00,weatherlink.com 1.10,2013-07-20 22:51:00,
2013-07-20 19:06:00,57.1,47.0,30.02,NE,42,1.0,-999.0,69,-99.99,,,0.00,weatherlink.com 1.10,2013-07-20 23:06:00,
2013-07-20 19:21:00,56.6,47.0,30.01,NE,39,1.0,-999.0,71,-99.99,,,0.00,weatherlink.com 1.10,2013-07-20 23:21:00,
2013-07-20 19:36:00,56.4,48.0,30.01,NE,50,0.0,-999.0,73,-99.99,,,0.00,weatherlink.com 1.10,2013-07-20 23:36:00,
2013-07-20 20:06:00,56.0,48.0,30.02,NE,41,0.0,-999.0,75,-99.99,,,0.00,weatherlink.com 1.10,2013-07-21 00:06:00,
2013-07-20 20:36:00,55.7,49.0,30.02,NE,50,0.0,-999.0,77,-99.99,,,0.00,weatherlink.com 1.10,2013-07-21 00:36:00,
2013-07-20 21:21:00,54.4,48.0,30.02,NE,44,0.0,-999.0,78,-99.99,,,0.00,weatherlink.com 1.10,2013-07-21 01:21:00,
2013-07-20 21:36:00,54.1,48.0,30.03,NE,44,0.0,-999.0,80,-99.99,,,0.00,weatherlink.com 1.10,2013-07-21 01:36:00,
2013-07-20 21:51:00,53.0,48.0,30.03,NE,44,0.0,-999.0,82,-99.99,,,0.00,weatherlink.com 1.10,2013-07-21 01:51:00,
2013-07-20 22:06:00,51.6,47.0,30.03,NE,44,0.0,-999.0,84,-99.99,,,0.00,weatherlink.com 1.10,2013-07-21 02:06:00,
2013-07-20 22:21:00,50.6,47.0,30.04,NE,44,0.0,-999.0,86,-99.99,,,0.00,weatherlink.com 1.10,2013-07-21 02:21:00,
2013-07-20 22:36:00,49.8,46.0,30.04,NE,44,0.0,-999.0,87,-99.99,,,0.00,weatherlink.com 1.10,2013-07-21 02:36:00,
2013-07-20 22:51:00,49.0,46.0,30.05,NE,44,0.0,-999.0,88,-99.99,,,0.00,weatherlink.com 1.10,2013-07-21 02:51:00,
2013-07-20 23:21:00,48.0,45.0,30.06,NE,44,0.0,-999.0,89,-99.99,,,0.00,weatherlink.com 1.10,2013-07-21 03:21:00,
2013-07-20 23:36:00,47.6,45.0,30.06,NE,44,0.0,-999.0,90,-99.99,,,0.00,weatherlink.com 1.10,2013-07-21 03:36:00,
2013-07-20 23:51:00,47.2,45.0,30.06,NE,44,0.0,-999.0,90,-99.99,,,0.00,weatherlink.com 1.10,2013-07-21 03:51:00,